Regional Weather Roundup
Issued by NWS

Home | Current Version | Previous Version | Text Only | Print | Product List | Glossary Off
Versions: 1 2 3 4 5 6 7 8 9 10 11 12 13 14 15 16 17 18 19 20 21 22 23 24 25 26 27 28 29 30 31 32 33 34 35 36 37 38 39 40 41 42 43 44 45 46 47 48 49 50

000
ASUS43 KLOT 060812
RWRIL

ILLINOIS REGIONAL WEATHER ROUNDUP
NATIONAL WEATHER SERVICE CHICAGO/ROMEOVILLE IL
300 AM CDT WED MAY 06 2015

NOTE: "FAIR" INDICATES FEW OR NO CLOUDS BELOW 12,000 FEET WITH NO
SIGNIFICANT WEATHER AND/OR OBSTRUCTIONS TO VISIBILITY.

* THESE STATIONS ARE NOT UNDER NWS QUALITY CONTROL. THEY ALSO MAY NOT
  REPORT WEATHER SUCH AS PRECIPITATION OR FOG.

ILZ001-002-007-009-015-016-024-060900-
NORTHWEST ILLINOIS

CITY           SKY/WX    TMP DP  RH WIND       PRES   REMARKS
MOLINE         CLOUDY    56  53  90 E12       30.12F FOG
STERLING*      CLOUDY    54  52  94 E12       30.15F VSB 3/4
SAVANNA*       CLOUDY    54  52  94 E9        30.15F FOG
$$

ILZ003-004-008-010-011-017-018-060900-
NORTH CENTRAL ILLINOIS

CITY           SKY/WX    TMP DP  RH WIND       PRES   REMARKS
ROCKFORD       FOG       51  49  92 E8        30.20F VSB 1/2
FREEPORT*      FOG       50  50  99 E12       30.19F VSB 1/2
ROCHELLE*      FOG       51  51 100 E8        30.17F VSB 1/2
DE KALB*       DRZL/FOG  49  48  99 E8        30.18F VSB 1/4
PERU*          FOG       56  56  97 E10       30.16F VSB 1/2
$$

ILZ005-006-012>014-019>023-060900-
NORTHEAST ILLINOIS

CITY           SKY/WX    TMP DP  RH WIND       PRES   REMARKS
CHICAGO-OHARE  FOG       46  46 100 NE7       30.18F VSB 1/4
CHICAGO-MIDWAY CLOUDY    52  49  89 N6        30.18F FOG
AURORA         FOG       51  48  89 NE8       30.18F VSB 1/2
LANSING*       FOG       49  47  93 N3        30.18F VSB 1/2
JOLIET*        FOG       54  54  99 NE6       30.17F VSB 1/4
WAUKEGAN       CLOUDY    46  43  89 NE3       30.20F
DUPAGE AIRPORT FOG       49  48  97 NE5       30.18F VSB 1/2
KANKAKEE*      CLOUDY    61  61  99 E5        30.17S FOG
WHEELING       CLOUDY    45  45 100 NE3       30.22S FOG
MORRIS*        FOG       53  53  97 NE5       30.14S VSB 1/2
ROMEOVILLE*    DRZL/FOG  51  51 100 E5        30.17F VSB 1/4
NORTHERLY ISL    N/A     47  46  97 N5          N/A
$$

LMZ740>746-060900-
SOUTHERN LAKE MICHIGAN

STATION/POSITION SKY/WX   TEMP    WIND        PRES    VSBY  WAVE
                          AIR SEA DIR/SP/G                  HT/PER
                          (F)     (DEG/KT/KT) (MB)    (MI)  (FT/S)
HARRISON CRIB              44      10/  6/  7   N/A
BURNHAM HARBOR             47     330/  5/  8   N/A
CALUMET HARBOR             45     340/  4/  6   N/A
BURNS HARBOR               52      50/  3/  4 1022.4F
MICHIGAN CITY              56      90/  3/  5   N/A
MICHIGAN CITY 6N           52 50   60/  4/  4   N/A           1/ 3
ST. JOSEPH                 53 49  130/  4/  6   N/A           1
$$

ILZ025>027-034>036-040-047-049-050-058-095>099-060900-
WEST-CENTRAL ILLINOIS

CITY           SKY/WX    TMP DP  RH WIND       PRES   REMARKS
QUINCY         PTCLDY    66  56  70 SE7       30.08F
GALESBURG*     MOCLDY    60  59  97 E7        30.11F FOG
MACOMB*          N/A     62  62  99 E3        30.12F FOG
JACKSONVILLE*  PTCLDY    70  57  64 S6        30.10F
PITTSFIELD*    PTCLDY    65  57  75 S3        30.11F
$$

ILZ028>032-037-038-041>044-048-051>054-059>061-060900-
CENTRAL ILLINOIS

CITY           SKY/WX    TMP DP  RH WIND       PRES   REMARKS
PONTIAC        FOG       59  59 100 CALM      30.15F VSB 1/4
BLOOMINGTON    CLEAR     57  57 100 E5        30.15F FOG
DECATUR        MOCLDY    59  52  77 NE5       30.14S
PEORIA         MOCLDY    62  58  86 NE7       30.12F FOG
LACON*         CLOUDY    57  56  96 E3        30.13F FOG
LINCOLN*       PTCLDY    61  59  94 CALM      30.11F FOG
SPRINGFIELD    MOCLDY    68  56  65 S8        30.11F
TAYLORVILLE    PTCLDY    63  55  77 S3        30.13S
$$

ILZ033-039-045-046-055>057-062-063-060900-
EAST-CENTRAL ILLINOIS

CITY           SKY/WX    TMP DP  RH WIND       PRES   REMARKS
CHAMPAIGN      CLOUDY    61  57  87 E5        30.15S
DANVILLE*      PTCLDY    59  58  98 CALM      30.13S
RANTOUL*       PTCLDY    61  59  95 CALM      30.15F FOG
MATTOON        CLEAR     64  54  69 CALM      30.14S
PARIS*         CLEAR     62  55  75 SE3       30.16F
$$

ILZ079-100>102-060900-
SOUTHWEST ILLINOIS

CITY           SKY/WX    TMP DP  RH WIND       PRES   REMARKS
ALTON          CLOUDY    62  61  99 CALM      30.12S
BELLEVILLE     CLEAR     62  61  99 CALM      30.11F
CAHOKIA*       CLEAR     62  56  80 CALM      30.11F
SPARTA*        CLEAR     63  58  84 SE6       30.14S
$$

ILZ064>066-069>071-074>076-080>082-084>086-088>090-092>094-060900-
SOUTH-CENTRAL ILLINOIS

CITY           SKY/WX    TMP DP  RH WIND       PRES   REMARKS
CARBONDALE     CLEAR     61  56  83 CALM      30.13F
CAIRO*         CLEAR     58  55  90 CALM      30.14F
EFFINGHAM*     CLEAR     60  55  81 SE3       30.16S
MARION         CLEAR     64  55  72 CALM      30.15S
MT. VERNON     CLEAR    N/A N/A N/A CALM      30.14F
CENTRALIA*     CLEAR     63  55  74 S6        30.13F
SALEM*         CLEAR     67  56  69 CALM      30.14F
METROPOLIS*      N/A     58  58 100 CALM      30.14F
$$

ILZ067-068-072-073-078-083-087-091-060900-
SOUTHEAST ILLINOIS

CITY           SKY/WX    TMP DP  RH WIND       PRES   REMARKS
LAWRENCEVILLE  CLEAR     59  53  80 SE3       30.16F
FLORA*         CLEAR     60  54  82 CALM      30.15F
FAIRFIELD*     CLEAR     61  56  82 CALM      30.14S
HARRISBURG*    CLEAR     59  56  88 CALM      30.16F
ROBINSON*      CLEAR     58  54  86 CALM      30.17S
CARMI*         CLEAR     58  51  78 S5        30.15S
$$

ABBREVIATIONS USED IN REMARKS
   TC - TEMPERATURE IN CELSIUS
  WCI - WIND CHILL INDEX
   HX - HEAT INDEX
  VSB - VISIBILITY
$$



USA.gov is the U.S. government's official web portal to all federal, state and local government web resources and services.